(277049) = 2002 RK205 = 2005 EP25

Discovered at Catalina on 2005-03-03 by CSS.

Orbit

Orbit type: Main Belt

Note: WebGL enabled browser required.

epoch2022-01-21.0
epoch JD2459600.5
perihelion date2020-05-11.38244
perihelion JD2458980.88244
argument of perihelion (°)78.84694
ascending node (°)355.98477
inclination (°)11.18401
eccentricity0.0581824
perihelion distance (AU)2.9331975
Tisserand w.r.t. Jupiter3.2
ΔV w.r.t. Earth (km/sec)11.2
semimajor axis (AU)3.1144009
mean anomaly (°)111.11323
mean daily motion (°/day)0.17932550
aphelion distance (AU)3.296
period (years)5.5
P-vector [x]0.26035041
P-vector [y]0.79276972
P-vector [z]0.55112053
Q-vector [x]-0.96541867
Q-vector [y]0.22177806
Q-vector [z]0.13704483
absolute magnitude15.76
phase slope0.15
uncertainty0
referenceMPO 696717
observations used286
oppositions11
arc length (days)7173
first opposition used2002
last opposition used2022
residual rms (arc-secs)0.78
perturbers coarse indicatorM-v
perturbers precise indicator003Ek
first observation date used2002-09-14.0
last observation date used2022-05-05.0
computer namePan
JD of orbit computation2456670.864024
perihelion JD uncertainty (days)1.2493E-03
argument of perihelion uncertainty (°)2.2193E-04
ascending node uncertainty (°)3.6814E-05
inclination uncertainty (°)2.1278E-05
eccentricity uncertainty 1.0189E-07
perihelion distance uncertainty (AU)3.6153E-07
Minimum Orbit Intersection Distances (in AU)
for orbit epoch: 2458200.5, reference: MPO413219
Mercury2.62967
Venus2.23119
Earth1.97364
Mars1.37289
Jupiter1.87163
Saturn6.20297
Uranus15.0491
Neptune26.832

Observations

300 total observations over interval: 2002 09 14.35597 – 2022 05 23.307425
These data are available for download (format description).

Date (UT) J2000 RA J2000 Dec Magn Location Ref
2002 09 14.35597 23 42 33.02 -02 42 04.9 20.5   644 – Palomar Mountain/NEAT MPS 61828
2002 09 14.37702 23 42 31.97 -02 42 06.9 20.5   644 – Palomar Mountain/NEAT MPS 61828
2002 09 14.39814 23 42 30.86 -02 42 09.8 19.5   644 – Palomar Mountain/NEAT MPS 61828
2002 09 15.43629 23 41 38.59 -02 44 12.4 20.1   644 – Palomar Mountain/NEAT MPS 61828
2002 09 15.43858 23 41 38.54 -02 44 12.0 19.8   644 – Palomar Mountain/NEAT MPS 61828
2002 09 15.44689 23 41 38.06 -02 44 13.6 19.8   644 – Palomar Mountain/NEAT MPS 61828
2002 09 15.45852 23 41 37.44 -02 44 14.9 19.6   644 – Palomar Mountain/NEAT MPS 61828
2002 09 15.46091 23 41 37.37 -02 44 14.9 19.3   644 – Palomar Mountain/NEAT MPS 61828
2002 09 15.48214 23 41 36.29 -02 44 17.4 19.7   644 – Palomar Mountain/NEAT MPS 61828
2005 03 03.33503 11 21 00.89 +07 16 32.1 19.4 R 703 – Catalina Sky Survey MPS 128086
2005 03 03.34532 11 21 00.38 +07 16 32.9 19.4 R 703 – Catalina Sky Survey MPS 128086
2005 03 03.35558 11 20 59.85 +07 16 35.7 19.1 R 703 – Catalina Sky Survey MPS 128086
2005 03 03.36591 11 20 59.18 +07 16 35.1 19.9 R 703 – Catalina Sky Survey MPS 128086
2005 03 04.37021 11 20 08.24 +07 18 50.4 19.5   704 – Lincoln Laboratory ETS, New Mexico MPS 128086
2005 03 04.38165 11 20 07.65 +07 18 52.8 19.2   704 – Lincoln Laboratory ETS, New Mexico MPS 128086
2005 03 04.39427 11 20 06.91 +07 18 53.5 19.6   704 – Lincoln Laboratory ETS, New Mexico MPS 128086
2005 03 10.30600 11 15 03.43 +07 31 42.9 19.2 R G96 – Mt. Lemmon Survey MPS 129172
2005 03 10.31360 11 15 03.02 +07 31 43.9 19.0 R G96 – Mt. Lemmon Survey MPS 129172
2005 03 10.32118 11 15 02.61 +07 31 44.8 18.9 R G96 – Mt. Lemmon Survey MPS 129172
2005 03 10.32877 11 15 02.20 +07 31 45.9 18.8 R G96 – Mt. Lemmon Survey MPS 129172
2005 03 12.30326 11 13 21.04 +07 35 48.2 20.3   704 – Lincoln Laboratory ETS, New Mexico MPS 129172
2005 03 12.31470 11 13 20.47 +07 35 49.0 20.3   704 – Lincoln Laboratory ETS, New Mexico MPS 129172
2005 03 12.32610 11 13 19.85 +07 35 50.7 19.8   704 – Lincoln Laboratory ETS, New Mexico MPS 129172
2005 04 10.16146 10 53 09.39 +08 03 05.6 20.6 V 691 – Steward Observatory, Kitt Peak-Spacewatch MPS 131734
2005 04 10.17795 10 53 08.92 +08 03 05.1 20.3 V 691 – Steward Observatory, Kitt Peak-Spacewatch MPS 131734
2005 04 10.19436 10 53 08.44 +08 03 04.9 20.7 V 691 – Steward Observatory, Kitt Peak-Spacewatch MPS 131734
2008 10 10.36424 02 14 24.14 +23 46 16.7 20.2 V G96 – Mt. Lemmon Survey MPS 260241
2008 10 10.37014 02 14 23.85 +23 46 17.1 20.8 V G96 – Mt. Lemmon Survey MPS 260241
2008 10 10.37604 02 14 23.56 +23 46 16.8 20.5 V G96 – Mt. Lemmon Survey MPS 260241
2008 10 10.38194 02 14 23.28 +23 46 17.0 20.5 V G96 – Mt. Lemmon Survey MPS 260241
2008 10 31.29500 01 55 50.23 +23 25 23.0 19.4 V G96 – Mt. Lemmon Survey MPS 261548
2008 10 31.30278 01 55 49.80 +23 25 22.2 19.6 V G96 – Mt. Lemmon Survey MPS 261548
2008 10 31.31057 01 55 49.36 +23 25 21.1 19.5 V G96 – Mt. Lemmon Survey MPS 261548
2008 10 31.31832 01 55 48.93 +23 25 19.9 19.5 V G96 – Mt. Lemmon Survey MPS 261548
2008 11 03.27189 01 53 10.21 +23 18 16.3 19.4 V 703 – Catalina Sky Survey MPS 263222
2008 11 03.27801 01 53 09.85 +23 18 14.3 19.6 V 703 – Catalina Sky Survey MPS 263222
2008 11 03.28414 01 53 09.52 +23 18 14.0 19.5 V 703 – Catalina Sky Survey MPS 263222
2008 11 03.29010 01 53 09.24 +23 18 12.4 19.7 V 703 – Catalina Sky Survey MPS 263222
2011 04 13.31465 13 22 39.97 -17 09 09.8 20.0 V G96 – Mt. Lemmon Survey MPS 378614
2011 04 13.32252 13 22 39.54 -17 09 08.7 20.0 V G96 – Mt. Lemmon Survey MPS 378614
2011 04 13.33036 13 22 39.14 -17 09 07.8 20.1 V G96 – Mt. Lemmon Survey MPS 378614
2011 04 13.33819 13 22 38.74 -17 09 06.3 19.3 V G96 – Mt. Lemmon Survey MPS 378614
2011 04 28.34090 13 10 19.607 -16 31 08.09 21.1 w F51 – Pan-STARRS 1, Haleakala MPS 380031
2011 04 28.35499 13 10 18.953 -16 31 05.51 20.9 w F51 – Pan-STARRS 1, Haleakala MPS 380031
2011 04 28.38332 13 10 17.608 -16 31 00.79 20.5 w F51 – Pan-STARRS 1, Haleakala MPS 380031
2011 05 09.22978 13 02 52.33 -16 00 42.4 20.7 V G96 – Mt. Lemmon Survey MPS 382136
2011 05 09.23782 13 02 52.00 -16 00 40.7 20.6 V G96 – Mt. Lemmon Survey MPS 382136
2011 05 09.24594 13 02 51.72 -16 00 39.1 21.0 V G96 – Mt. Lemmon Survey MPS 382136
2011 05 09.25397 13 02 51.46 -16 00 38.4 20.7 V G96 – Mt. Lemmon Survey MPS 382136
2013 09 01.40054 23 49 04.35 -02 51 36.7 20.1 V G96 – Mt. Lemmon Survey MPS 476030
2013 09 01.40750 23 49 04.00 -02 51 37.4 20.1 V G96 – Mt. Lemmon Survey MPS 476030
2013 09 01.41443 23 49 03.70 -02 51 38.1 19.8 V G96 – Mt. Lemmon Survey MPS 476030
2013 09 01.42138 23 49 03.38 -02 51 38.8 19.7 V G96 – Mt. Lemmon Survey MPS 476030
2013 09 12.25588 23 40 25.55 -03 11 54.5 19.2 V G96 – Mt. Lemmon Survey MPS 477562
2013 09 12.26609 23 40 25.03 -03 11 55.7 19.3 V G96 – Mt. Lemmon Survey MPS 477562
2013 09 12.27627 23 40 24.51 -03 11 56.8 19.3 V G96 – Mt. Lemmon Survey MPS 477562
2013 09 12.28645 23 40 23.98 -03 11 58.2 19.4 V G96 – Mt. Lemmon Survey MPS 477562
2013 09 15.30773 23 37 52.29 -03 17 59.2 19.2 V G96 – Mt. Lemmon Survey MPS 477562
2013 09 15.31558 23 37 51.89 -03 18 00.0 19.1 V G96 – Mt. Lemmon Survey MPS 477562
2013 09 15.32336 23 37 51.49 -03 18 01.0 18.9 V G96 – Mt. Lemmon Survey MPS 477562
2013 09 15.33112 23 37 51.06 -03 18 02.0 18.9 V G96 – Mt. Lemmon Survey MPS 477562
2013 09 25.22970 23 29 37.11 -03 36 54.0 19.6 V G96 – Mt. Lemmon Survey MPS 478623
2013 09 25.23085 23 29 37.07 -03 36 53.8 19.6 V G96 – Mt. Lemmon Survey MPS 478623
2013 09 25.23553 23 29 36.81 -03 36 54.6 19.9 V G96 – Mt. Lemmon Survey MPS 478623
2013 09 25.23667 23 29 36.80 -03 36 54.7 20.5 V G96 – Mt. Lemmon Survey MPS 478623
2013 09 25.24141 23 29 36.51 -03 36 55.4 20.4 V G96 – Mt. Lemmon Survey MPS 478623
2013 09 25.24254 23 29 36.50 -03 36 55.3 20.4 V G96 – Mt. Lemmon Survey MPS 478623
2013 09 25.24845 23 29 36.18 -03 36 56.2 20.2 V G96 – Mt. Lemmon Survey MPS 478623
2013 10 01.22043 23 24 54.46 -03 46 33.3 19.9 V 703 – Catalina Sky Survey MPS 479882
2013 10 01.22541 23 24 54.24 -03 46 34.4 20.1 V 703 – Catalina Sky Survey MPS 479882
2013 10 01.23046 23 24 54.04 -03 46 34.1 20.1 V 703 – Catalina Sky Survey MPS 479882
2013 10 01.23556 23 24 53.69 -03 46 34.9 20.1 V 703 – Catalina Sky Survey MPS 479882
2013 10 01.24050 23 24 53.51 -03 46 34.8 20.5 V 703 – Catalina Sky Survey MPS 479882
2013 10 08.19099 23 19 56.93 -03 54 56.4 20.6 V G96 – Mt. Lemmon Survey MPS 482123
2013 10 08.19761 23 19 56.65 -03 54 56.7 20.1 V G96 – Mt. Lemmon Survey MPS 482123
2013 10 08.20425 23 19 56.38 -03 54 57.0 20.1 V G96 – Mt. Lemmon Survey MPS 482123
2013 10 08.21090 23 19 56.10 -03 54 57.6 20.1 V G96 – Mt. Lemmon Survey MPS 482123
2013 10 21.32357 23 12 49.799 -03 59 14.89 20.4 r F51 – Pan-STARRS 1, Haleakala MPS 483464
2013 10 21.33400 23 12 49.528 -03 59 14.64 20.1 r F51 – Pan-STARRS 1, Haleakala MPS 483464
2013 10 21.34604 23 12 49.205 -03 59 14.38 20.0 i F51 – Pan-STARRS 1, Haleakala MPS 483464
2013 10 21.35764 23 12 48.905 -03 59 14.15 20.1 i F51 – Pan-STARRS 1, Haleakala MPS 483464
2013 12 28.06580 23 31 55.05 +00 19 12.2 20.7 V G96 – Mt. Lemmon Survey MPS 495084
2013 12 28.07467 23 31 55.56 +00 19 15.0 20.4 V G96 – Mt. Lemmon Survey MPS 495084
2013 12 28.08354 23 31 55.94 +00 19 19.1 21.0 V G96 – Mt. Lemmon Survey MPS 495084
2013 12 28.09485 23 31 56.46 +00 19 23.5 20.6 V G96 – Mt. Lemmon Survey MPS 495084
2015 12 16.58279 11 37 30.841 +07 34 26.55 21.5 w F51 – Pan-STARRS 1, Haleakala MPS 662332
2015 12 16.59478 11 37 31.289 +07 34 23.26 21.4 w F51 – Pan-STARRS 1, Haleakala MPS 662332
2016 02 05.49416 11 41 56.259 +05 59 20.83 20.7 w F51 – Pan-STARRS 1, Haleakala MPS 681914
2016 02 05.50598 11 41 55.919 +05 59 21.49 21.0 w F51 – Pan-STARRS 1, Haleakala MPS 681914
2016 02 05.51781 11 41 55.566 +05 59 22.09 21.2 w F51 – Pan-STARRS 1, Haleakala MPS 681914
2016 02 05.52969 11 41 55.210 +05 59 22.73 20.8 w F51 – Pan-STARRS 1, Haleakala MPS 681914
2016 02 28.43063 11 26 37.13 +06 38 02.2   691 – Steward Observatory, Kitt Peak-Spacewatch MPS 689574
2016 02 28.44931 11 26 36.19 +06 38 04.9   691 – Steward Observatory, Kitt Peak-Spacewatch MPS 689574
2016 02 28.46800 11 26 35.21 +06 38 07.3   691 – Steward Observatory, Kitt Peak-Spacewatch MPS 689574
